[[{"header":{"parameterUnit":"m.s-1","parameterCategory":1,"la1":30.2991,"la2":30.254,"lo1":-89.0895,"lo2":-89.0444,"dy":0.0017,"dx":0.0017,"nx":28,"ny":28,"refTime":"2025-05-31T21:00:00:Z","depth":0,"parameterNumber":2,"parameterNumberName":"U-component_of_WINDS"},"data":[0,0,0,0,0,0,0,0,0,0,0,0,0,0,0,0,0,0,0,0,0,0,0,0,0,0,0,0,0,0,0,0,0,0,0,0,0,0,0,0,0,0,0,0,0,0,0,0,0,0,0,0,0,0,0,0,0,0,-0.9253,-0.9252,0,-0.9217,-0.9217,-0.9216,-0.919,-0.9189,-0.9189,-0.9189,-0.9154,-0.9153,-0.9153,0,0,0,0,0,0,0,0,0,0,0,0,0,-0.9299,-0.9298,-0.9253,-0.9252,-0.9252,-0.9217,-0.9217,-0.9216,-0.919,-0.9189,-0.9189,-0.9189,-0.9154,-0.9153,-0.9153,0,0,0,0,0,0,0,0,0,0,0,0,0,-0.9273,-0.9298,-0.9253,-0.9234,-0.9232,-0.9217,-0.9217,-0.9216,-0.919,-0.9189,-0.9189,-0.9189,-0.9155,-0.9153,-0.9152,-0.9153,0,0,-0.9149,-0.9149,0,0,0,0,0,0,0,0,-0.9274,-0.9271,-0.9238,-0.9236,-0.9233,-0.9207,-0.922,-0.9195,-0.919,-0.9206,-0.9189,-0.9188,-0.9172,-0.917,-0.9164,-0.9152,-0.915,-0.9149,-0.9149,-0.9148,-0.9148,0,0,0,0,0,0,0,-0.9276,-0.9273,-0.9239,-0.9237,-0.9235,-0.9228,-0.9224,-0.9215,-0.9192,-0.9205,-0.9202,-0.9199,-0.9171,-0.9165,-0.9163,-0.915,-0.9149,-0.9148,-0.9148,-0.9147,-0.9135,-0.9136,0,0,0,0,0,0,-0.9281,-0.9274,-0.924,-0.9238,-0.9253,-0.9228,-0.9223,-0.9216,-0.9192,-0.9188,-0.9199,-0.9197,-0.9167,-0.9164,-0.9161,-0.916,-0.9148,-0.9147,-0.9146,-0.9135,-0.9136,-0.9136,0,0,0,0,0,0,-0.9282,-0.9278,-0.9241,-0.9255,-0.925,-0.9227,-0.922,-0.9216,-0.9209,-0.9187,-0.9183,-0.9197,-0.9166,-0.9163,-0.9155,-0.9158,-0.9147,-0.9146,-0.9135,-0.9135,-0.9136,-0.9158,0,0,0,0,0,0,-0.9283,-0.9278,-0.9278,-0.9256,-0.925,-0.9235,-0.922,-0.9215,-0.9208,-0.9205,-0.9184,-0.9181,-0.9166,-0.9157,-0.9154,-0.9157,-0.9145,-0.9134,-0.9135,-0.9136,-0.9157,-0.9159,-0.9161,0,0,0,0,0,-0.9285,-0.9287,-0.9279,-0.9275,-0.9249,-0.9236,-0.9232,-0.9215,-0.9208,-0.9208,-0.9193,-0.9181,-0.9159,-0.9156,-0.9153,-0.9155,-0.9134,-0.9135,-0.9136,-0.9156,-0.9158,-0.9161,0,0,0,0,0,0,-0.9311,-0.9283,-0.9274,-0.9268,-0.9254,-0.9231,-0.923,-0.9219,-0.9207,-0.9205,-0.9185,-0.918,-0.9174,-0.9164,-0.9162,-0.9154,-0.9145,-0.9145,-0.9161,-0.9164,-0.9166,-0.9168,-0.9144,0,0,0,0,0,-0.9316,-0.9308,-0.9284,-0.9281,-0.9274,-0.9254,-0.9247,-0.9235,-0.922,-0.9214,-0.9199,-0.9186,-0.9175,-0.9169,-0.9158,-0.9155,-0.915,-0.9155,-0.9157,-0.9159,-0.9159,-0.9156,-0.9158,-0.9138,-0.9138,-0.9138,0,0,-0.9327,-0.9311,-0.9306,-0.9286,-0.9274,-0.9265,-0.9249,-0.9241,-0.9234,-0.9213,-0.9204,-0.9193,-0.9177,-0.9171,-0.9167,-0.9162,-0.9164,-0.916,-0.9162,-0.9161,-0.9157,-0.9159,-0.916,-0.9139,-0.9139,-0.9139,0,0,-0.9342,-0.9329,-0.9324,-0.9312,-0.9293,-0.9279,-0.9278,-0.9257,-0.9248,-0.9239,-0.9222,-0.9215,-0.9197,-0.9186,-0.9178,-0.9187,-0.9176,-0.9184,-0.9196,-0.9193,-0.9194,-0.9195,-0.9198,-0.9199,-0.9185,-0.9185,-0.9185,0,-0.9357,-0.9343,-0.9324,-0.9316,-0.9307,-0.9287,-0.9282,-0.9272,-0.9251,-0.9245,-0.9239,-0.9217,-0.9204,-0.9195,-0.9197,-0.9192,-0.919,-0.9187,-0.9195,-0.9196,-0.9197,-0.92,-0.9201,-0.9186,-0.9186,-0.9186,-0.9186,0,-0.9363,-0.9353,-0.9352,-0.9331,-0.9323,-0.9317,-0.9296,-0.929,-0.9278,-0.9265,-0.9255,-0.924,-0.9225,-0.9222,-0.9211,-0.9211,-0.9208,-0.9199,-0.9189,-0.9201,-0.9202,-0.9203,-0.9188,-0.9187,-0.9187,-0.9187,0,0,-0.9394,-0.9361,-0.9361,-0.9351,-0.9328,-0.9321,-0.9314,-0.9299,-0.9293,-0.928,-0.9273,-0.9258,-0.925,-0.9241,-0.9228,-0.9225,-0.9233,-0.9216,-0.9216,-0.922,-0.9231,-0.9238,-0.9239,-0.9225,-0.9225,-0.9225,-0.9232,0,-0.9404,-0.939,-0.9371,-0.9363,-0.9354,-0.9334,-0.9328,-0.9313,-0.9301,-0.9291,-0.9277,-0.9267,-0.9256,-0.9251,-0.9247,-0.9233,-0.9235,-0.9232,-0.9219,-0.9218,-0.9223,-0.924,-0.9247,-0.9254,-0.9233,-0.9233,-0.9233,0,-0.9415,-0.9401,-0.9391,-0.9369,-0.9364,-0.9359,-0.9343,-0.9334,-0.9317,-0.9308,-0.9297,-0.9283,-0.9275,-0.9266,-0.9254,-0.9253,-0.9246,-0.9238,-0.9238,-0.9236,-0.9226,-0.9238,-0.9256,-0.9257,-0.9234,-0.9234,-0.9234,0,-0.9437,-0.9416,-0.9407,-0.94,-0.9373,-0.937,-0.9359,-0.9341,-0.9333,-0.9319,-0.9314,-0.93,-0.9292,-0.9282,-0.9264,-0.926,-0.9254,-0.9244,-0.9246,-0.9247,-0.9246,-0.9246,-0.9263,-0.9242,-0.9242,-0.9242,-0.9242,0,-0.9451,-0.9446,-0.9417,-0.9412,-0.9405,-0.9384,-0.9379,-0.9366,-0.935,-0.9342,-0.9325,-0.9318,-0.9295,-0.9286,-0.9272,-0.9264,-0.9261,-0.9253,-0.925,-0.9255,-0.9255,-0.925,-0.9249,-0.9243,-0.9243,-0.9243,-0.9243,0,-0.9475,-0.9456,-0.9444,-0.942,-0.9413,-0.941,-0.9389,-0.9383,-0.9369,-0.9358,-0.9355,-0.9333,-0.9321,-0.9302,-0.9285,-0.9276,-0.9269,-0.9264,-0.9275,-0.9272,-0.9275,-0.9275,-0.9289,-0.929,-0.927,-0.927,-0.927,0,-0.9485,-0.948,-0.9454,-0.9447,-0.9436,-0.9425,-0.9416,-0.9396,-0.9387,-0.9367,-0.9363,-0.9349,-0.9337,-0.9318,-0.9301,-0.9287,-0.9281,-0.9287,-0.9279,-0.9283,-0.928,-0.928,-0.928,-0.9289,-0.9289,-0.9289,-0.9289,0,-0.9504,-0.9494,-0.9481,-0.9465,-0.9455,-0.9441,-0.9427,-0.9422,-0.9399,-0.939,-0.9376,-0.9367,-0.9348,-0.9334,-0.9318,-0.9307,-0.9294,-0.9292,-0.9292,-0.9296,-0.9303,-0.9299,-0.9279,-0.9292,-0.9292,-0.9291,-0.9291,-0.9291,-0.9521,-0.9515,-0.9496,-0.9482,-0.9469,-0.9455,-0.9448,-0.9433,-0.9421,-0.9403,-0.9392,-0.9379,-0.9362,-0.9338,-0.9328,-0.9317,-0.9312,-0.9312,-0.9312,-0.9312,-0.9313,-0.9304,-0.9315,-0.9314,-0.9314,-0.9314,-0.9314,0,-0.9538,-0.9524,-0.9512,-0.9492,-0.9481,-0.9469,-0.9452,-0.9444,-0.9432,-0.9417,-0.9405,-0.9389,-0.9375,-0.9357,-0.9341,-0.9337,-0.9331,-0.9334,-0.9333,-0.9331,-0.9319,-0.9321,-0.9339,-0.9339,-0.9339,-0.9339,-0.9339,-0.9339,-0.9546,-0.9536,-0.9524,-0.9506,-0.9493,-0.9479,-0.947,-0.9458,-0.9445,-0.9428,-0.9416,-0.9404,-0.9387,-0.937,-0.9357,-0.9352,-0.9347,-0.9352,-0.9345,-0.9334,-0.9332,-0.933,-0.9331,-0.9351,-0.9351,-0.9357,-0.9358,-0.9358]},{"header":{"parameterUnit":"m.s-1","parameterCategory":1,"la1":30.2991,"la2":30.254,"lo1":-89.0895,"lo2":-89.0444,"dy":0.0017,"dx":0.0017,"nx":28,"ny":28,"refTime":"2025-05-31T21:00:00:Z","depth":0,"parameterNumber":3,"parameterNumberName":"V-component_of_WINDS"},"data":[0,0,0,0,0,0,0,0,0,0,0,0,0,0,0,0,0,0,0,0,0,0,0,0,0,0,0,0,0,0,0,0,0,0,0,0,0,0,0,0,0,0,0,0,0,0,0,0,0,0,0,0,0,0,0,0,0,0,-0.6975,-0.6975,0,-0.6995,-0.6995,-0.6995,-0.6988,-0.6987,-0.6987,-0.6986,-0.701,-0.7011,-0.7012,0,0,0,0,0,0,0,0,0,0,0,0,0,-0.6933,-0.6934,-0.6975,-0.6975,-0.6975,-0.6995,-0.6995,-0.6995,-0.6988,-0.6987,-0.6987,-0.6986,-0.701,-0.7011,-0.7013,0,0,0,0,0,0,0,0,0,0,0,0,0,-0.6952,-0.6934,-0.6975,-0.6974,-0.6974,-0.6995,-0.6995,-0.6996,-0.6988,-0.6987,-0.6986,-0.6986,-0.7009,-0.7011,-0.7013,-0.7037,0,0,-0.7018,-0.7018,0,0,0,0,0,0,0,0,-0.6951,-0.6954,-0.6973,-0.6974,-0.6974,-0.6988,-0.6989,-0.701,-0.6988,-0.6983,-0.6986,-0.6985,-0.7004,-0.7006,-0.7011,-0.7038,-0.7039,-0.7018,-0.7019,-0.7019,-0.702,0,0,0,0,0,0,0,-0.695,-0.6953,-0.6983,-0.6974,-0.6974,-0.6973,-0.6975,-0.6993,-0.6997,-0.6983,-0.6982,-0.6985,-0.7004,-0.701,-0.7012,-0.704,-0.7018,-0.7019,-0.702,-0.7021,-0.709,-0.7091,0,0,0,0,0,0,-0.6948,-0.6952,-0.6982,-0.6983,-0.696,-0.6975,-0.6977,-0.6984,-0.6997,-0.6998,-0.6985,-0.6984,-0.7007,-0.701,-0.7013,-0.7044,-0.7019,-0.7021,-0.7022,-0.7089,-0.709,-0.7091,0,0,0,0,0,0,-0.6947,-0.6951,-0.6981,-0.6967,-0.6971,-0.6976,-0.6985,-0.6985,-0.6991,-0.6998,-0.7,-0.6991,-0.7007,-0.701,-0.7031,-0.7044,-0.7022,-0.7023,-0.7088,-0.709,-0.7091,-0.7105,0,0,0,0,0,0,-0.6946,-0.695,-0.6959,-0.6968,-0.6972,-0.6999,-0.6985,-0.6986,-0.6993,-0.6992,-0.7004,-0.7005,-0.7006,-0.7029,-0.7033,-0.7046,-0.7024,-0.7087,-0.7089,-0.7091,-0.7104,-0.7107,-0.711,0,0,0,0,0,-0.6944,-0.6962,-0.6959,-0.6963,-0.6982,-0.6999,-0.7002,-0.7002,-0.6994,-0.7004,-0.7009,-0.7005,-0.7042,-0.7031,-0.7036,-0.705,-0.7087,-0.7089,-0.709,-0.7102,-0.7106,-0.711,0,0,0,0,0,0,-0.6955,-0.6963,-0.696,-0.6981,-0.6989,-0.6998,-0.7009,-0.7006,-0.7018,-0.7017,-0.7018,-0.702,-0.7043,-0.7048,-0.7036,-0.7075,-0.7063,-0.7066,-0.7071,-0.7075,-0.7078,-0.7077,-0.7026,0,0,0,0,0,-0.696,-0.6972,-0.6978,-0.6996,-0.7001,-0.7004,-0.7012,-0.7011,-0.7021,-0.7025,-0.7031,-0.7042,-0.7056,-0.7065,-0.7079,-0.7104,-0.7108,-0.7116,-0.7119,-0.7121,-0.7125,-0.7141,-0.7145,-0.7098,-0.7098,-0.7098,0,0,-0.697,-0.6976,-0.6983,-0.6999,-0.7005,-0.7019,-0.7007,-0.7022,-0.7033,-0.7027,-0.7048,-0.7053,-0.7065,-0.7089,-0.71,-0.7094,-0.7138,-0.7124,-0.7126,-0.7128,-0.7143,-0.7148,-0.7152,-0.7099,-0.7099,-0.7099,0,0,-0.6996,-0.7001,-0.7017,-0.7024,-0.7034,-0.7036,-0.704,-0.7049,-0.7053,-0.7073,-0.7069,-0.7083,-0.7107,-0.7116,-0.7124,-0.7155,-0.7152,-0.7159,-0.7175,-0.7191,-0.7195,-0.7198,-0.7211,-0.7216,-0.7162,-0.7162,-0.7162,0,-0.7008,-0.7027,-0.7026,-0.7041,-0.7049,-0.7044,-0.7061,-0.7068,-0.7083,-0.7089,-0.7082,-0.7113,-0.7121,-0.7148,-0.7155,-0.7161,-0.7167,-0.7158,-0.7194,-0.7197,-0.7201,-0.7213,-0.7218,-0.7163,-0.7162,-0.7162,-0.7162,0,-0.7042,-0.7056,-0.7068,-0.7082,-0.7091,-0.7107,-0.711,-0.712,-0.7119,-0.7122,-0.7145,-0.7153,-0.7169,-0.7175,-0.7175,-0.7203,-0.72,-0.7193,-0.7182,-0.7206,-0.7218,-0.7223,-0.7164,-0.7164,-0.7163,-0.7163,0,0,-0.7076,-0.7089,-0.7093,-0.71,-0.7111,-0.7123,-0.714,-0.7155,-0.7164,-0.7174,-0.719,-0.7211,-0.7206,-0.7215,-0.7215,-0.7229,-0.7256,-0.7221,-0.7222,-0.7229,-0.729,-0.7296,-0.7302,-0.7253,-0.7254,-0.7255,-0.729,0,-0.7104,-0.7133,-0.7133,-0.716,-0.7175,-0.717,-0.7185,-0.7195,-0.7199,-0.7212,-0.7218,-0.7233,-0.7224,-0.723,-0.7243,-0.7249,-0.7268,-0.7247,-0.727,-0.7271,-0.7269,-0.7308,-0.7314,-0.7347,-0.7294,-0.7295,-0.7296,0,-0.7141,-0.7152,-0.7181,-0.7191,-0.7197,-0.7211,-0.7226,-0.7238,-0.7249,-0.7252,-0.7262,-0.7261,-0.7281,-0.7267,-0.7296,-0.7281,-0.7291,-0.7296,-0.7297,-0.7301,-0.7286,-0.7315,-0.7357,-0.7363,-0.7303,-0.7302,-0.7302,0,-0.7166,-0.7188,-0.7208,-0.7214,-0.7226,-0.7236,-0.7242,-0.7252,-0.7262,-0.7275,-0.7282,-0.7297,-0.7306,-0.7319,-0.7323,-0.7313,-0.7352,-0.7339,-0.7357,-0.7357,-0.7367,-0.7366,-0.7413,-0.737,-0.737,-0.737,-0.7369,0,-0.7198,-0.7217,-0.7219,-0.7232,-0.7253,-0.7253,-0.7275,-0.728,-0.729,-0.7305,-0.7302,-0.7316,-0.732,-0.7336,-0.7339,-0.7364,-0.7367,-0.7371,-0.7372,-0.7373,-0.7372,-0.738,-0.7379,-0.7371,-0.7371,-0.737,-0.737,0,-0.7229,-0.7232,-0.7254,-0.7264,-0.7267,-0.7282,-0.7291,-0.7305,-0.7308,-0.7328,-0.7333,-0.734,-0.7358,-0.7363,-0.7386,-0.7388,-0.7418,-0.7415,-0.7414,-0.7414,-0.7433,-0.7432,-0.7488,-0.7497,-0.7445,-0.7446,-0.7446,0,-0.7251,-0.7265,-0.7276,-0.7286,-0.7292,-0.7307,-0.7317,-0.7318,-0.7329,-0.7343,-0.7356,-0.7374,-0.7389,-0.7419,-0.7427,-0.7445,-0.7445,-0.7463,-0.7448,-0.7448,-0.7448,-0.7448,-0.7451,-0.7467,-0.7468,-0.7468,-0.7468,0,-0.729,-0.7291,-0.7304,-0.7318,-0.733,-0.7342,-0.7353,-0.7361,-0.7364,-0.7377,-0.7395,-0.7407,-0.743,-0.7449,-0.7468,-0.7475,-0.7474,-0.7473,-0.7479,-0.748,-0.7479,-0.7482,-0.7424,-0.7472,-0.7472,-0.7471,-0.7471,-0.7471,-0.7319,-0.7331,-0.7342,-0.7357,-0.7366,-0.7377,-0.739,-0.7396,-0.7411,-0.7429,-0.7429,-0.7451,-0.7464,-0.7488,-0.7497,-0.7515,-0.751,-0.7517,-0.7519,-0.7522,-0.7525,-0.7475,-0.7518,-0.7518,-0.7518,-0.7518,-0.7518,0,-0.7359,-0.7365,-0.738,-0.7395,-0.7409,-0.7403,-0.7416,-0.7428,-0.7446,-0.7458,-0.7472,-0.7495,-0.7514,-0.7524,-0.7543,-0.7556,-0.7556,-0.7561,-0.7562,-0.7564,-0.7527,-0.7521,-0.7561,-0.7561,-0.7561,-0.7561,-0.7561,-0.7561,-0.7382,-0.7404,-0.7406,-0.7434,-0.744,-0.746,-0.7468,-0.7479,-0.7489,-0.7514,-0.7529,-0.7535,-0.7547,-0.7567,-0.7585,-0.7587,-0.7596,-0.7602,-0.7605,-0.7571,-0.7566,-0.7562,-0.7557,-0.7604,-0.7604,-0.7641,-0.7641,-0.7641]}]]